Time,TemperatureF,DewpointF,PressureIn,WindDirection,WindDirectionDegrees,WindSpeedMPH,WindSpeedGustMPH,Humidity,HourlyPrecipIn,Conditions,Clouds,dailyrainin,SoftwareType,DateUTC
2013-08-10 00:01:00,51.0,46.0,30.56,NE,50,0.0,6.0,86,-99.99,,,-99.99,,2013-08-10 06:01:00,
2013-08-10 00:11:00,51.0,47.0,30.56,NE,50,0.0,0.0,86,-99.99,,,-99.99,,2013-08-10 06:11:00,
2013-08-10 00:16:00,51.0,47.0,30.56,NE,50,0.0,0.0,87,-99.99,,,-99.99,,2013-08-10 06:16:00,
2013-08-10 00:21:00,50.0,47.0,30.56,NE,50,0.0,0.0,87,-99.99,,,-99.99,,2013-08-10 06:21:00,
2013-08-10 00:26:00,50.0,46.0,30.56,NW,320,5.0,0.0,87,-99.99,,,-99.99,,2013-08-10 06:26:00,
2013-08-10 00:31:00,50.0,46.0,30.56,NNE,30,5.0,5.0,88,-99.99,,,-99.99,,2013-08-10 06:31:00,
2013-08-10 00:41:00,49.0,46.0,30.56,NW,320,6.0,8.0,89,-99.99,,,-99.99,,2013-08-10 06:41:00,
2013-08-10 00:51:00,49.0,46.0,30.55,North,0,6.0,7.0,91,-99.99,,,-99.99,,2013-08-10 06:51:00,
2013-08-10 00:56:00,48.0,46.0,30.56,North,350,6.0,8.0,91,-99.99,,,-99.99,,2013-08-10 06:56:00,
2013-08-10 01:06:00,48.0,45.0,30.55,NE,40,4.0,8.0,91,-99.99,,,-99.99,,2013-08-10 07:06:00,
2013-08-10 01:11:00,48.0,45.0,30.55,NNE,30,6.0,6.0,92,-99.99,,,-99.99,,2013-08-10 07:11:00,
2013-08-10 01:21:00,47.0,45.0,30.55,NE,50,3.0,6.0,92,-99.99,,,-99.99,,2013-08-10 07:21:00,
2013-08-10 01:26:00,47.0,45.0,30.56,North,0,3.0,5.0,93,-99.99,,,-99.99,,2013-08-10 07:26:00,
2013-08-10 01:31:00,47.0,45.0,30.56,North,0,4.0,4.0,92,-99.99,,,-99.99,,2013-08-10 07:31:00,
2013-08-10 01:36:00,47.0,44.0,30.56,WNW,300,0.0,6.0,92,-99.99,,,-99.99,,2013-08-10 07:36:00,
2013-08-10 01:46:00,46.0,44.0,30.56,NW,320,8.0,8.0,93,-99.99,,,-99.99,,2013-08-10 07:46:00,
2013-08-10 01:56:00,45.0,43.0,30.56,NNE,30,3.0,7.0,93,-99.99,,,-99.99,,2013-08-10 07:56:00,
2013-08-10 02:06:00,45.0,43.0,30.56,North,0,3.0,6.0,93,-99.99,,,-99.99,,2013-08-10 08:06:00,
2013-08-10 02:16:00,45.0,43.0,30.56,NW,310,8.0,8.0,94,-99.99,,,-99.99,,2013-08-10 08:16:00,
2013-08-10 02:26:00,44.0,43.0,30.56,NNW,340,6.0,7.0,94,-99.99,,,-99.99,,2013-08-10 08:26:00,
2013-08-10 02:36:00,44.0,42.0,30.56,North,10,5.0,8.0,95,-99.99,,,-99.99,,2013-08-10 08:36:00,
2013-08-10 02:46:00,44.0,42.0,30.56,NNE,30,6.0,6.0,95,-99.99,,,-99.99,,2013-08-10 08:46:00,
2013-08-10 02:51:00,44.0,42.0,30.56,North,0,6.0,7.0,95,-99.99,,,-99.99,,2013-08-10 08:51:00,
2013-08-10 02:56:00,43.0,42.0,30.56,NNW,340,8.0,8.0,95,-99.99,,,-99.99,,2013-08-10 08:56:00,
2013-08-10 03:01:00,43.0,42.0,30.55,North,0,3.0,8.0,95,-99.99,,,-99.99,,2013-08-10 09:01:00,
2013-08-10 03:11:00,43.0,42.0,30.56,West,280,3.0,6.0,95,-99.99,,,-99.99,,2013-08-10 09:11:00,
2013-08-10 03:16:00,43.0,42.0,30.56,NW,320,7.0,7.0,95,-99.99,,,-99.99,,2013-08-10 09:16:00,
2013-08-10 03:26:00,43.0,42.0,30.56,North,0,4.0,8.0,96,-99.99,,,-99.99,,2013-08-10 09:26:00,
2013-08-10 03:31:00,43.0,41.0,30.56,North,0,6.0,6.0,96,-99.99,,,-99.99,,2013-08-10 09:31:00,
2013-08-10 03:36:00,42.0,41.0,30.56,NNE,20,5.0,8.0,96,-99.99,,,-99.99,,2013-08-10 09:36:00,
2013-08-10 03:41:00,42.0,41.0,30.55,NNE,30,5.0,6.0,96,-99.99,,,-99.99,,2013-08-10 09:41:00,
2013-08-10 03:51:00,42.0,41.0,30.55,NNW,330,9.0,9.0,97,-99.99,,,-99.99,,2013-08-10 09:51:00,
2013-08-10 04:01:00,42.0,41.0,30.55,North,10,4.0,11.0,97,-99.99,,,-99.99,,2013-08-10 10:01:00,
2013-08-10 04:11:00,41.0,40.0,30.55,NNW,340,6.0,6.0,97,-99.99,,,-99.99,,2013-08-10 10:11:00,
2013-08-10 04:16:00,41.0,40.0,30.55,North,350,8.0,8.0,97,-99.99,,,-99.99,,2013-08-10 10:16:00,
2013-08-10 04:26:00,41.0,40.0,30.55,North,0,7.0,8.0,97,-99.99,,,-99.99,,2013-08-10 10:26:00,
2013-08-10 04:31:00,41.0,40.0,30.55,NNW,340,7.0,7.0,98,-99.99,,,-99.99,,2013-08-10 10:31:00,
2013-08-10 04:41:00,41.0,40.0,30.55,NE,40,4.0,7.0,97,-99.99,,,-99.99,,2013-08-10 10:41:00,
2013-08-10 04:51:00,40.0,39.0,30.55,North,0,0.0,6.0,98,-99.99,,,-99.99,,2013-08-10 10:51:00,
2013-08-10 04:56:00,40.0,40.0,30.56,NE,40,5.0,6.0,98,-99.99,,,-99.99,,2013-08-10 10:56:00,
2013-08-10 05:01:00,40.0,39.0,30.56,NNW,340,10.0,10.0,98,-99.99,,,-99.99,,2013-08-10 11:01:00,
2013-08-10 05:06:00,40.0,40.0,30.56,NNW,340,10.0,10.0,99,-99.99,,,-99.99,,2013-08-10 11:06:00,
2013-08-10 05:16:00,40.0,40.0,30.56,North,0,7.0,10.0,98,-99.99,,,-99.99,,2013-08-10 11:16:00,
2013-08-10 05:26:00,40.0,39.0,30.56,NNW,340,6.0,8.0,98,-99.99,,,-99.99,,2013-08-10 11:26:00,
2013-08-10 05:31:00,40.0,39.0,30.56,WNW,300,7.0,7.0,98,-99.99,,,-99.99,,2013-08-10 11:31:00,
2013-08-10 05:36:00,40.0,39.0,30.56,NW,320,7.0,7.0,98,-99.99,,,-99.99,,2013-08-10 11:36:00,
2013-08-10 05:46:00,40.0,39.0,30.56,NNE,20,6.0,8.0,99,-99.99,,,-99.99,,2013-08-10 11:46:00,
2013-08-10 05:56:00,39.0,39.0,30.56,NNW,340,3.0,6.0,99,-99.99,,,-99.99,,2013-08-10 11:56:00,
2013-08-10 06:06:00,39.0,39.0,30.56,North,0,6.0,7.0,99,-99.99,,,-99.99,,2013-08-10 12:06:00,
2013-08-10 06:16:00,39.0,39.0,30.57,North,10,5.0,6.0,99,-99.99,,,-99.99,,2013-08-10 12:16:00,
2013-08-10 06:21:00,39.0,39.0,30.58,ENE,60,3.0,6.0,100,-99.99,,,-99.99,,2013-08-10 12:21:00,
2013-08-10 06:31:00,39.0,39.0,30.58,NNW,340,6.0,8.0,100,-99.99,,,-99.99,,2013-08-10 12:31:00,
2013-08-10 06:36:00,39.0,39.0,30.58,West,280,0.0,8.0,100,-99.99,,,-99.99,,2013-08-10 12:36:00,
2013-08-10 06:46:00,39.0,39.0,30.58,West,280,0.0,0.0,99,-99.99,,,-99.99,,2013-08-10 12:46:00,
2013-08-10 06:56:00,39.0,39.0,30.58,NE,50,3.0,6.0,99,-99.99,,,-99.99,,2013-08-10 12:56:00,
2013-08-10 07:06:00,39.0,39.0,30.57,NW,310,7.0,7.0,99,-99.99,,,-99.99,,2013-08-10 13:06:00,
2013-08-10 07:11:00,39.0,39.0,30.57,North,0,6.0,9.0,99,-99.99,,,-99.99,,2013-08-10 13:11:00,
2013-08-10 07:16:00,40.0,39.0,30.58,NNE,30,4.0,8.0,99,-99.99,,,-99.99,,2013-08-10 13:16:00,
2013-08-10 07:21:00,40.0,40.0,30.57,North,10,3.0,9.0,99,-99.99,,,-99.99,,2013-08-10 13:21:00,
2013-08-10 07:31:00,41.0,41.0,30.58,NW,310,6.0,7.0,99,-99.99,,,-99.99,,2013-08-10 13:31:00,
2013-08-10 07:36:00,41.0,41.0,30.57,WNW,300,6.0,8.0,99,-99.99,,,-99.99,,2013-08-10 13:36:00,
2013-08-10 07:46:00,42.0,42.0,30.58,WNW,300,8.0,8.0,99,-99.99,,,-99.99,,2013-08-10 13:46:00,
2013-08-10 07:51:00,43.0,42.0,30.58,WNW,290,3.0,8.0,98,-99.99,,,-99.99,,2013-08-10 13:51:00,
2013-08-10 08:01:00,44.0,43.0,30.58,NNW,340,8.0,8.0,98,-99.99,,,-99.99,,2013-08-10 14:01:00,
2013-08-10 08:11:00,45.0,44.0,30.58,NW,310,0.0,7.0,96,-99.99,,,-99.99,,2013-08-10 14:11:00,
2013-08-10 08:21:00,46.0,45.0,30.58,West,280,3.0,6.0,94,-99.99,,,-99.99,,2013-08-10 14:21:00,
2013-08-10 08:31:00,48.0,45.0,30.58,WNW,290,4.0,6.0,91,-99.99,,,-99.99,,2013-08-10 14:31:00,
2013-08-10 08:41:00,50.0,46.0,30.58,NNW,340,0.0,5.0,86,-99.99,,,-99.99,,2013-08-10 14:41:00,
2013-08-10 08:51:00,52.0,47.0,30.58,NW,310,0.0,3.0,81,-99.99,,,-99.99,,2013-08-10 14:51:00,
2013-08-10 09:01:00,54.0,47.0,30.58,WSW,250,0.0,4.0,76,-99.99,,,-99.99,,2013-08-10 15:01:00,
2013-08-10 09:11:00,55.0,47.0,30.58,NNW,330,3.0,5.0,72,-99.99,,,-99.99,,2013-08-10 15:11:00,
2013-08-10 09:21:00,57.0,47.0,30.58,NW,310,5.0,6.0,68,-99.99,,,-99.99,,2013-08-10 15:21:00,
2013-08-10 09:26:00,57.0,47.0,30.58,NNW,330,3.0,6.0,67,-99.99,,,-99.99,,2013-08-10 15:26:00,
2013-08-10 09:36:00,58.0,46.0,30.58,WSW,250,0.0,5.0,64,-99.99,,,-99.99,,2013-08-10 15:36:00,
2013-08-10 09:46:00,60.0,47.0,30.58,North,10,0.0,4.0,64,-99.99,,,-99.99,,2013-08-10 15:46:00,
2013-08-10 09:51:00,61.0,49.0,30.58,North,10,0.0,4.0,65,-99.99,,,-99.99,,2013-08-10 15:51:00,
2013-08-10 09:56:00,62.0,49.0,30.58,North,10,0.0,0.0,62,-99.99,,,-99.99,,2013-08-10 15:56:00,
2013-08-10 10:06:00,62.0,47.0,30.58,North,10,0.0,0.0,57,-99.99,,,-99.99,,2013-08-10 16:06:00,
2013-08-10 10:16:00,63.0,49.0,30.58,North,10,0.0,2.0,59,-99.99,,,-99.99,,2013-08-10 16:16:00,
2013-08-10 10:26:00,64.0,47.0,30.58,South,180,0.0,5.0,54,-99.99,,,-99.99,,2013-08-10 16:26:00,
2013-08-10 10:31:00,65.0,50.0,30.58,SE,140,0.0,4.0,57,-99.99,,,-99.99,,2013-08-10 16:31:00,
2013-08-10 10:41:00,66.0,49.0,30.58,South,180,0.0,7.0,55,-99.99,,,-99.99,,2013-08-10 16:41:00,
2013-08-10 10:46:00,66.0,48.0,30.58,SSE,160,0.0,6.0,51,-99.99,,,-99.99,,2013-08-10 16:46:00,
2013-08-10 10:51:00,66.0,48.0,30.58,South,170,6.0,7.0,52,-99.99,,,-99.99,,2013-08-10 16:51:00,
2013-08-10 10:56:00,66.0,48.0,30.58,SSE,160,8.0,8.0,51,-99.99,,,-99.99,,2013-08-10 16:56:00,
2013-08-10 11:01:00,67.0,48.0,30.58,South,170,5.0,8.0,51,-99.99,,,-99.99,,2013-08-10 17:01:00,
2013-08-10 11:06:00,67.0,47.0,30.57,ESE,120,0.0,10.0,49,-99.99,,,-99.99,,2013-08-10 17:06:00,
2013-08-10 11:16:00,67.0,47.0,30.57,SSE,160,6.0,8.0,50,-99.99,,,-99.99,,2013-08-10 17:16:00,
2013-08-10 11:26:00,68.0,47.0,30.56,SSE,150,3.0,6.0,48,-99.99,,,-99.99,,2013-08-10 17:26:00,
2013-08-10 11:31:00,68.0,47.0,30.56,South,190,6.0,6.0,48,-99.99,,,-99.99,,2013-08-10 17:31:00,
2013-08-10 11:36:00,68.0,48.0,30.56,South,180,7.0,8.0,48,-99.99,,,-99.99,,2013-08-10 17:36:00,
2013-08-10 11:41:00,68.0,49.0,30.56,SSE,150,3.0,7.0,50,-99.99,,,-99.99,,2013-08-10 17:41:00,
2013-08-10 11:51:00,69.0,48.0,30.56,SSE,160,5.0,6.0,49,-99.99,,,-99.99,,2013-08-10 17:51:00,
2013-08-10 11:56:00,70.0,49.0,30.56,SSE,150,5.0,8.0,48,-99.99,,,-99.99,,2013-08-10 17:56:00,
2013-08-10 12:01:00,70.0,48.0,30.56,SSE,160,3.0,8.0,46,-99.99,,,-99.99,,2013-08-10 18:01:00,
2013-08-10 12:06:00,69.0,49.0,30.55,SSE,160,6.0,7.0,47,-99.99,,,-99.99,,2013-08-10 18:06:00,
2013-08-10 12:11:00,70.0,48.0,30.55,SE,140,0.0,7.0,46,-99.99,,,-99.99,,2013-08-10 18:11:00,
2013-08-10 12:21:00,69.0,49.0,30.55,SE,140,0.0,0.0,49,-99.99,,,-99.99,,2013-08-10 18:21:00,
2013-08-10 12:31:00,69.0,50.0,30.55,SE,140,0.0,0.0,52,-99.99,,,-99.99,,2013-08-10 18:31:00,
2013-08-10 12:36:00,69.0,47.0,30.55,SE,140,0.0,0.0,45,-99.99,,,-99.99,,2013-08-10 18:36:00,
2013-08-10 12:46:00,69.0,49.0,30.54,SE,140,0.0,0.0,49,-99.99,,,-99.99,,2013-08-10 18:46:00,
2013-08-10 12:51:00,69.0,49.0,30.54,SE,140,0.0,0.0,50,-99.99,,,-99.99,,2013-08-10 18:51:00,
2013-08-10 13:01:00,68.0,50.0,30.54,SE,140,0.0,0.0,54,-99.99,,,-99.99,,2013-08-10 19:01:00,
2013-08-10 13:06:00,67.0,51.0,30.54,WSW,240,8.0,0.0,55,-99.99,,,-99.99,,2013-08-10 19:06:00,
2013-08-10 13:16:00,66.0,51.0,30.53,SSE,150,3.0,9.0,57,-99.99,,,-99.99,,2013-08-10 19:16:00,
2013-08-10 13:26:00,67.0,47.0,30.53,SSE,150,8.0,11.0,49,-99.99,,,-99.99,,2013-08-10 19:26:00,
2013-08-10 13:36:00,69.0,47.0,30.53,South,170,10.0,10.0,46,-99.99,,,-99.99,,2013-08-10 19:36:00,
2013-08-10 13:41:00,70.0,46.0,30.52,SSE,160,7.0,13.0,42,-99.99,,,-99.99,,2013-08-10 19:41:00,
2013-08-10 13:46:00,70.0,45.0,30.52,SSE,150,5.0,12.0,41,-99.99,,,-99.99,,2013-08-10 19:46:00,
2013-08-10 13:56:00,69.0,47.0,30.53,SSW,200,6.0,8.0,46,-99.99,,,-99.99,,2013-08-10 19:56:00,
2013-08-10 14:06:00,70.0,49.0,30.52,SSW,210,7.0,9.0,48,-99.99,,,-99.99,,2013-08-10 20:06:00,
2013-08-10 14:11:00,70.0,48.0,30.52,South,180,7.0,9.0,46,-99.99,,,-99.99,,2013-08-10 20:11:00,
2013-08-10 14:21:00,70.0,44.0,30.52,South,180,0.0,6.0,40,-99.99,,,-99.99,,2013-08-10 20:21:00,
2013-08-10 14:31:00,70.0,46.0,30.52,SSE,160,5.0,5.0,43,-99.99,,,-99.99,,2013-08-10 20:31:00,
2013-08-10 14:41:00,71.0,47.0,30.52,SSW,200,3.0,7.0,43,-99.99,,,-99.99,,2013-08-10 20:41:00,
2013-08-10 14:46:00,71.0,45.0,30.52,SSE,160,7.0,7.0,40,-99.99,,,-99.99,,2013-08-10 20:46:00,
2013-08-10 14:56:00,71.0,44.0,30.51,West,280,7.0,7.0,38,-99.99,,,-99.99,,2013-08-10 20:56:00,
2013-08-10 15:06:00,70.0,42.0,30.50,WNW,300,9.0,11.0,37,-99.99,,,-99.99,,2013-08-10 21:06:00,
2013-08-10 15:11:00,70.0,41.0,30.50,WNW,300,8.0,12.0,36,-99.99,,,-99.99,,2013-08-10 21:11:00,
2013-08-10 15:16:00,70.0,44.0,30.50,WNW,300,0.0,11.0,39,-99.99,,,-99.99,,2013-08-10 21:16:00,
2013-08-10 15:26:00,70.0,44.0,30.49,NNW,330,8.0,10.0,39,-99.99,,,-99.99,,2013-08-10 21:26:00,
2013-08-10 15:36:00,71.0,42.0,30.49,WNW,300,13.0,16.0,36,-99.99,,,-99.99,,2013-08-10 21:36:00,
2013-08-10 15:41:00,70.0,43.0,30.49,West,260,10.0,16.0,37,-99.99,,,-99.99,,2013-08-10 21:41:00,
2013-08-10 15:46:00,70.0,42.0,30.50,WNW,300,6.0,17.0,37,-99.99,,,-99.99,,2013-08-10 21:46:00,
2013-08-10 15:56:00,69.0,43.0,30.50,NW,320,10.0,11.0,38,-99.99,,,-99.99,,2013-08-10 21:56:00,
2013-08-10 16:06:00,69.0,43.0,30.50,WNW,290,9.0,11.0,40,-99.99,,,-99.99,,2013-08-10 22:06:00,
2013-08-10 16:11:00,68.0,44.0,30.51,WNW,300,8.0,9.0,42,-99.99,,,-99.99,,2013-08-10 22:11:00,
2013-08-10 16:16:00,68.0,45.0,30.51,WNW,290,9.0,11.0,43,-99.99,,,-99.99,,2013-08-10 22:16:00,
2013-08-10 16:26:00,67.0,45.0,30.51,West,280,7.0,11.0,45,-99.99,,,-99.99,,2013-08-10 22:26:00,
2013-08-10 16:31:00,67.0,44.0,30.52,WNW,290,3.0,10.0,44,-99.99,,,-99.99,,2013-08-10 22:31:00,
2013-08-10 16:41:00,66.0,45.0,30.52,SSE,160,7.0,7.0,47,-99.99,,,-99.99,,2013-08-10 22:41:00,
2013-08-10 16:51:00,64.0,46.0,30.52,SE,130,7.0,14.0,52,-99.99,,,-99.99,,2013-08-10 22:51:00,
2013-08-10 16:56:00,63.0,46.0,30.53,South,170,9.0,15.0,54,-99.99,,,-99.99,,2013-08-10 22:56:00,
2013-08-10 17:01:00,63.0,47.0,30.53,South,180,10.0,14.0,55,-99.99,,,-99.99,,2013-08-10 23:01:00,
2013-08-10 17:11:00,63.0,47.0,30.53,SSW,210,7.0,12.0,55,-99.99,,,-99.99,,2013-08-10 23:11:00,
2013-08-10 17:21:00,63.0,47.0,30.54,SSE,150,9.0,14.0,54,-99.99,,,-99.99,,2013-08-10 23:21:00,
2013-08-10 17:26:00,63.0,46.0,30.54,SSE,150,5.0,12.0,53,-99.99,,,-99.99,,2013-08-10 23:26:00,
2013-08-10 17:31:00,63.0,47.0,30.54,South,170,7.0,8.0,56,-99.99,,,-99.99,,2013-08-10 23:31:00,
2013-08-10 17:36:00,63.0,48.0,30.54,South,180,9.0,9.0,57,-99.99,,,-99.99,,2013-08-10 23:36:00,
2013-08-10 17:46:00,63.0,45.0,30.54,SE,140,11.0,14.0,53,-99.99,,,-99.99,,2013-08-10 23:46:00,
2013-08-10 17:56:00,62.0,45.0,30.55,SE,140,17.0,17.0,54,-99.99,,,-99.99,,2013-08-10 23:56:00,
2013-08-10 18:06:00,61.0,45.0,30.55,South,170,14.0,20.0,56,-99.99,,,-99.99,,2013-08-11 00:06:00,
2013-08-10 18:16:00,59.0,46.0,30.56,SSE,150,12.0,19.0,61,-99.99,,,-99.99,,2013-08-11 00:16:00,
2013-08-10 18:26:00,59.0,46.0,30.56,South,180,14.0,14.0,62,-99.99,,,-99.99,,2013-08-11 00:26:00,
2013-08-10 18:31:00,59.0,45.0,30.57,North,0,9.0,18.0,60,-99.99,,,-99.99,,2013-08-11 00:31:00,
2013-08-10 18:36:00,59.0,45.0,30.58,ENE,60,6.0,24.0,61,-99.99,,,-99.99,,2013-08-11 00:36:00,
2013-08-10 18:46:00,58.0,47.0,30.59,WNW,300,3.0,14.0,67,-99.99,,,-99.99,,2013-08-11 00:46:00,
2013-08-10 18:51:00,57.0,48.0,30.59,West,280,7.0,11.0,69,-99.99,,,-99.99,,2013-08-11 00:51:00,
2013-08-10 19:01:00,57.0,49.0,30.60,SE,140,0.0,5.0,74,-99.99,,,-99.99,,2013-08-11 01:01:00,
2013-08-10 19:06:00,56.0,48.0,30.60,ESE,110,6.0,6.0,72,-99.99,,,-99.99,,2013-08-11 01:06:00,
2013-08-10 19:16:00,56.0,48.0,30.61,South,170,10.0,10.0,73,-99.99,,,-99.99,,2013-08-11 01:16:00,
2013-08-10 19:21:00,56.0,47.0,30.61,ENE,70,0.0,10.0,74,-99.99,,,-99.99,,2013-08-11 01:21:00,
2013-08-10 19:31:00,55.0,48.0,30.61,NE,40,0.0,0.0,74,-99.99,,,-99.99,,2013-08-11 01:31:00,
2013-08-10 19:36:00,56.0,48.0,30.61,ESE,110,0.0,5.0,77,-99.99,,,-99.99,,2013-08-11 01:36:00,
2013-08-10 19:41:00,55.0,48.0,30.61,ENE,70,6.0,6.0,77,-99.99,,,-99.99,,2013-08-11 01:41:00,
2013-08-10 19:46:00,55.0,49.0,30.61,NE,50,6.0,7.0,80,-99.99,,,-99.99,,2013-08-11 01:46:00,
2013-08-10 19:56:00,54.0,49.0,30.61,East,90,0.0,6.0,82,-99.99,,,-99.99,,2013-08-11 01:56:00,
2013-08-10 20:06:00,54.0,47.0,30.60,ESE,120,3.0,11.0,76,-99.99,,,-99.99,,2013-08-11 02:06:00,
2013-08-10 20:16:00,54.0,46.0,30.60,South,180,6.0,8.0,75,-99.99,,,-99.99,,2013-08-11 02:16:00,
2013-08-10 20:21:00,54.0,47.0,30.60,SSE,160,6.0,10.0,76,-99.99,,,-99.99,,2013-08-11 02:21:00,
2013-08-10 20:26:00,54.0,46.0,30.59,South,180,8.0,12.0,76,-99.99,,,-99.99,,2013-08-11 02:26:00,
2013-08-10 20:36:00,54.0,47.0,30.58,SE,130,0.0,7.0,78,-99.99,,,-99.99,,2013-08-11 02:36:00,
2013-08-10 20:41:00,54.0,47.0,30.58,South,180,0.0,4.0,78,-99.99,,,-99.99,,2013-08-11 02:41:00,
2013-08-10 20:46:00,54.0,47.0,30.58,South,180,0.0,4.0,77,-99.99,,,-99.99,,2013-08-11 02:46:00,
2013-08-10 20:51:00,54.0,47.0,30.58,South,180,0.0,0.0,77,-99.99,,,-99.99,,2013-08-11 02:51:00,
2013-08-10 21:01:00,54.0,48.0,30.58,NE,50,0.0,2.0,81,-99.99,,,-99.99,,2013-08-11 03:01:00,
2013-08-10 21:11:00,53.0,47.0,30.58,ENE,70,0.0,4.0,81,-99.99,,,-99.99,,2013-08-11 03:11:00,
2013-08-10 21:21:00,53.0,48.0,30.58,NE,40,0.0,4.0,85,-99.99,,,-99.99,,2013-08-11 03:21:00,
2013-08-10 21:31:00,52.0,48.0,30.58,NE,40,0.0,0.0,87,-99.99,,,-99.99,,2013-08-11 03:31:00,
2013-08-10 21:46:00,52.0,49.0,30.58,NE,40,0.0,0.0,89,-99.99,,,-99.99,,2013-08-11 03:46:00,
2013-08-10 21:56:00,52.0,49.0,30.58,ENE,70,3.0,0.0,89,-99.99,,,-99.99,,2013-08-11 03:56:00,
2013-08-10 22:01:00,51.0,49.0,30.58,ENE,70,0.0,5.0,91,-99.99,,,-99.99,,2013-08-11 04:01:00,
2013-08-10 22:06:00,51.0,48.0,30.58,ENE,70,0.0,4.0,90,-99.99,,,-99.99,,2013-08-11 04:06:00,
2013-08-10 22:11:00,51.0,48.0,30.58,East,80,0.0,1.0,89,-99.99,,,-99.99,,2013-08-11 04:11:00,
2013-08-10 22:21:00,51.0,48.0,30.57,ESE,110,3.0,5.0,90,-99.99,,,-99.99,,2013-08-11 04:21:00,
2013-08-10 22:26:00,51.0,48.0,30.57,East,80,0.0,4.0,90,-99.99,,,-99.99,,2013-08-11 04:26:00,
2013-08-10 22:36:00,50.0,48.0,30.57,East,90,5.0,5.0,91,-99.99,,,-99.99,,2013-08-11 04:36:00,
2013-08-10 22:41:00,51.0,48.0,30.57,NNE,30,0.0,6.0,91,-99.99,,,-99.99,,2013-08-11 04:41:00,
2013-08-10 22:46:00,51.0,48.0,30.57,NNE,20,0.0,5.0,91,-99.99,,,-99.99,,2013-08-11 04:46:00,
2013-08-10 22:51:00,50.0,48.0,30.57,NNE,20,0.0,3.0,91,-99.99,,,-99.99,,2013-08-11 04:51:00,
2013-08-10 22:56:00,50.0,48.0,30.57,NNE,20,0.0,0.0,91,-99.99,,,-99.99,,2013-08-11 04:56:00,
2013-08-10 23:01:00,50.0,48.0,30.57,NNE,20,0.0,0.0,91,-99.99,,,-99.99,,2013-08-11 05:01:00,
2013-08-10 23:11:00,50.0,47.0,30.57,NNE,20,0.0,0.0,92,-99.99,,,-99.99,,2013-08-11 05:11:00,
2013-08-10 23:21:00,49.0,47.0,30.57,NNE,20,0.0,0.0,92,-99.99,,,-99.99,,2013-08-11 05:21:00,
2013-08-10 23:31:00,49.0,47.0,30.57,NNE,20,0.0,0.0,93,-99.99,,,-99.99,,2013-08-11 05:31:00,
2013-08-10 23:41:00,49.0,47.0,30.57,NNE,20,0.0,0.0,93,-99.99,,,-99.99,,2013-08-11 05:41:00,
2013-08-10 23:56:00,49.0,47.0,30.57,NNE,20,0.0,0.0,93,-99.99,,,-99.99,,2013-08-11 05:56:00,